Location: White Sands National Monument
(32.8140°N, 106.2665°W)
Time: 02:27:22
(UTC-06:00)

Daily predictions for brighter satellites

Satellite Brightness Start Highest point End
(mag) Time Altitude Azimuth Time Altitude Azimuth Time Altitude Azimuth
ATLAS 3B R/B 4.5 03:51:33 22° SE 03:53:57 26° ESE 03:59:47 10° NE
ADEOS II 3.7 03:54:50 10° NE 03:58:41 30° E 03:58:41 30° E
Cosmos 1607 4.4 04:15:19 55° NNE 04:15:19 55° NNE 04:20:11 10° NNE
Cosmos 1943 4.3 04:11:39 10° N 04:17:03 42° ENE 04:22:23 10° SE
Cosmos 2263 Rocket 2.9 04:21:57 50° NNE 04:21:57 50° NNE 04:26:06 10° NNE
Atlas Centaur 2 2.9 04:22:30 49° ESE 04:22:30 49° ESE 04:26:31 10° E
MOS 1-B 4.2 04:44:24 10° N 04:50:12 79° WNW 04:50:50 70° SW
Intercosmos 25 Rocket 3.9 04:56:00 35° SSE 04:57:46 63° E 05:01:15 10° NNE
CZ-3 R/B 3.4 04:49:52 31° SW 05:01:30 60° S 05:08:47 10° E
CZ-4B R/B 3.5 04:59:19 10° NNE 05:04:33 62° ESE 05:09:50 10° S
GOES 2 Rocket 3.7 05:06:07 39° SSE 05:06:07 39° SSE 05:09:36 10° ESE
USA 238 DEB 3.9 05:01:21 25° SSW 05:05:36 72° ESE 05:12:34 10° NE
USA 238 3.9 05:01:24 25° SSW 05:05:43 72° ESE 05:12:40 10° NE
Cosmos 332 Rocket 4.2 05:09:32 10° N 05:14:18 63° ENE 05:19:02 10° SSE
Cosmos 371 Rocket 3.9 05:14:12 10° N 05:19:01 59° ENE 05:23:45 10° SSE
Cosmos 1570 Rocket 3.9 05:17:09 10° NNW 05:22:24 65° WSW 05:27:39 10° S
Okean O Rocket 1.5 05:19:30 10° N 05:23:47 61° WNW 05:25:10 40° SW
Cosmos 2208 Rocket 3.9 05:24:43 10° NNW 05:29:55 61° WSW 05:35:00 10° S
S3M 4.4 05:24:43 10° S 05:30:52 65° E 05:37:07 10° NNE
Nadezhda 2 Rocket 4.4 05:26:14 10° N 05:32:31 70° W 05:38:42 10° S
Cosmos 1975 3.2 05:30:55 10° NNW 05:34:45 40° W 05:36:04 30° SW
Meteor 2-11 Rocket 4.3 05:31:54 10° SSW 05:37:57 72° W 05:44:01 10° N
Cosmos 2278 Rocket 4.4 05:33:40 10° SSE 05:38:14 26° ESE 05:42:48 10° NE
ADEOS II 3.1 05:34:44 10° NNW 05:39:00 26° WNW 05:39:39 25° W
Delta 2 Rocket 4.0 05:36:22 29° WSW 05:39:16 87° NNW 05:45:05 10° ENE
IRS-1C Rocket 4.0 05:34:16 10° N 05:39:30 66° WNW 05:44:43 10° SSW
Landsat 4 3.8 05:37:11 10° SSE 05:40:58 79° ENE 05:44:48 10° N
Tiangong 1 2.4 05:40:26 20° NNW 05:41:33 28° NNE 05:43:55 10° E
NOSS 3-2 (C) 4.4 05:37:08 10° S 05:42:39 46° ESE 05:48:35 10° NE
CZ-4B DEB 4.4 05:37:57 10° N 05:43:12 50° WNW 05:48:28 10° SSW
CZ-3A R/B 3.4 05:41:18 22° SW 05:43:18 39° SSE 05:53:42 10° ESE
ATLAS 3B R/B 3.0 05:38:53 19° SW 05:44:17 55° WNW 05:51:20 10° NNE
Meteor 1-31 Rocket 2.6 05:41:38 10° N 05:45:30 72° WNW 05:49:18 10° SSW
Cosmos 1666 2.5 05:42:24 10° N 05:46:10 72° W 05:49:56 10° S
DELTA 2 R/B (1) 4.2 05:42:43 16° WNW 05:47:03 50° NNE 05:52:27 10° E
Cosmos 1814 Rocket 4.3 05:44:34 10° NNW 05:49:44 69° ENE 05:54:54 10° SSE
ATLAS CENTAUR R/B 2.5 05:49:12 10° S 05:52:58 40° ESE 05:56:34 10° NE
Cosmos 1844 Rocket 2.6 05:50:04 10° SSW 05:55:41 72° WNW 06:01:22 10° NNE
Cosmos 1743 3.2 05:53:05 10° NNW 05:56:43 37° W 06:00:18 10° SSW
Meteor 1-23 Rocket 4.2 05:52:13 10° S 05:57:45 85° E 06:03:20 10° N
Cosmos 1943 4.3 05:56:34 10° NW 06:00:42 21° W 06:04:49 10° SSW
ASTRO E2 3.3 05:58:52 17° WSW 06:01:44 50° SSE 06:05:37 10° E
Cosmos 2263 Rocket 4.0 06:03:41 11° WNW 06:04:59 12° NW 06:07:01 10° NNW
OAO 1 Rocket 4.5 06:05:16 15° WSW 06:09:48 86° NNW 06:15:11 10° ENE
Atlas Centaur 2 2.1 06:05:08 15° W 06:10:07 65° S 06:14:45 10° ESE
Meteor 1-28 Rocket 3.2 06:07:45 10° SSE 06:11:28 89° ENE 06:15:13 10° N
Cosmos 1455 Rocket 4.2 06:13:06 10° NW 06:16:22 21° W 06:19:38 10° SW
Meteor 1-4 Rocket 3.5 06:13:34 10° NW 06:16:27 25° W 06:19:19 10° SSW
Cosmos 841 Rocket 3.5 06:21:06 10° NNW 06:26:18 83° WSW 06:31:31 10° SSE
Okean-O 2.8 06:23:01 10° N 06:27:19 51° WNW 06:31:36 10° SSW
Skynet4D Del rocket 4.2 06:22:18 10° WSW 06:27:49 46° S 06:32:56 10° ESE
MTI 4.5 06:26:22 10° SSW 06:29:20 33° W 06:32:20 10° NNW
SKYMED 2 3.6 06:26:33 10° SSE 06:30:53 87° W 06:35:13 10° NNW
Feng Yun 1-1 Rocket 4.4 06:25:56 10° N 06:31:10 52° WNW 06:36:25 10° SSW
NOSS 3-2 (A) 3.6 06:25:51 10° SW 06:31:34 53° NW 06:37:49 10° NNE
ATLAS 5 CENTAUR R/B 3.6 06:27:40 10° NNW 06:33:37 50° ENE 06:40:01 10° SE
